www.pogodaiklimat.ru
ПОГОДА в Нагапаттинаме
Время
(UTC), дата
03 13.10
06 13.10
09 13.10
12 13.10
15 13.10
18 13.10
21 13.10
00 14.10
03 14.10
06 14.10
09 14.10
12 14.10
15 14.10
18 14.10
21 14.10
00 15.10
03 15.10
06 15.10
09 15.10
12 15.10
15 15.10
18 15.10
21 15.10
00 16.10
03 16.10
06 16.10
09 16.10
12 16.10
15 16.10
18 16.10
21 16.10
00 17.10
03 17.10
06 17.10
09 17.10
12 17.10
15 17.10
18 17.10
21 17.10
00 18.10
03 18.10
06 18.10
09 18.10
12 18.10
15 18.10
18 18.10
21 18.10
00 19.10
03 19.10
06 19.10
09 19.10
12 19.10
15 19.10
18 19.10
21 19.10
00 20.10
Ветер
(напр.,м/с)
Видим. Явления Облачность Т
(С)
Тd
(С)
f
(%)
Тe
(С)
Тes
(С)
Комфортность P
(гПа)
Po
(гПа)
Тmin
(С)
Tmax
(С)
R
(мм)
R24
(мм)
S
(см)
штиль 0 10 км 5/4 600 м
[Sc diur, vesp Ac trans]
+31.0 +25.1 71 +45 +49 опасность
перегрева
1011.0 1010.0 +27.7 +33.9
В 1 10 км 5/4 600 м
[Sc diur, vesp Ac trans]
+33.2 +25.6 64 +48 +60 опасность
перегрева
1010.5 1009.5
ЮВ 2 10 км 3/3 600 м
[Sc diur, vesp]
+33.0 +25.4 64 +47 +57 опасность
перегрева
1007.8 1006.8
В 1 10 км 3/3 600 м
[Sc diur, vesp]
+30.8 +25.7 74 +45 +46 опасность
перегрева
1007.4 1006.4 +33.5
В 1 4000 м 1/1 600 м
[Sc diur, vesp]
+29.2 +26.4 85 +45 +45 опасность
перегрева
1010.4 1009.4
штиль 0 4000 м 4/3 600 м
[Sc diur, vesp Ac trans]
+29.0 +25.6 82 +43 +43 опасность
перегрева
1011.6 1010.5
штиль 0 4000 м 4/4 600 м
[Sc diur, vesp]
+28.2 +25.4 85 +41 +41 опасность
перегрева
1009.5 1008.4
штиль 0 4000 м 5/5 600 м
[Sc diur, vesp]
+28.0 +25.7 87 +41 +41 опасность
перегрева
1010.1 1009.0
СЗ 1 10 км {дождь, морось} 4/4 600 м
[Sc diur, vesp]
+27.0 +25.6 92 +40 +44 очень
душно
1012.0 1010.9 +25.9 +33.5 5
СВ 2 10 км 3/1 600 м
[Sc diur, vesp Ci fib]
+32.8 +24.9 63 +46 +64 опасность
перегрева
1010.9 1009.9
СВ 1 10 км 6/5 600 м
[Sc diur, vesp Ci fib]
+32.0 +26.7 74 +49 +57 опасность
перегрева
1007.8 1006.8
СВ 2 10 км 5/4 600 м
[Sc diur, vesp Ci fib]
+30.2 +25.4 76 +44 +45 опасность
перегрева
1007.4 1006.7 +32.8
СВ 2 4000 м 3/1 600 м
[Sc diur, vesp Ci fib]
+29.2 +24.9 78 +42 +42 опасность
перегрева
1009.6 1008.6
СВ 2 4000 м 5/4 600 м
[Sc diur, vesp Ci fib]
+29.4 +25.4 79 +43 +43 опасность
перегрева
1010.2 1009.2
СВ 2 4000 м {дождь, морось} 8/8 600 м
[Sc diur, vesp]
+27.6 +26.2 92 +42 +42 опасность
перегрева
1008.4 1007.3 5
СЗ 1 4000 м {дождь, морось} 6/6 600 м
[Sc diur, vesp]
+27.6 +25.9 90 +41 +41 опасность
перегрева
1008.5 1007.4 5
штиль 0 4000 м гроза, ливневой дождь 10/6 300 м
[Cb cap Ac As]
+25.0 +25.0 100 +36 +37 очень
душно
1010.3 1009.2 +25.0 +32.8 15
штиль 0 4000 м слаб. морось {гроза, дождь} 10/6 300 м
[Frnb Ac As]
+26.0 +26.0 100 +39 +42 очень
душно
1010.0 1009.3 7
штиль 0 10 км 8/4 600 м
[Sc diur, vesp Ac trans Ci sp]
+29.2 +25.8 82 +44 +50 опасность
перегрева
1007.6 1006.6 7
штиль 0 10 км 9/4 600 м
[Cu med, cong Ac trans Cs]
+28.8 +25.4 82 +42 +42 опасность
перегрева
1007.6 1006.5 +30.0 7
штиль 0 4000 м 8/1 600 м
[Sc Ac trans Ci sp]
+27.2 +25.8 92 +40 +40 очень
душно
1010.3 1009.2 7
штиль 0 4000 м 6/0 2000 м
[Ac trans Ci sp]
+27.2 +26.4 95 +41 +41 опасность
перегрева
1010.2 1009.1 7
СЗ 1 2000 м мгла 8/3 600 м
[Sc diur, vesp Ac trans Ci sp]
+26.8 +26.2 97 +41 +41 опасность
перегрева
1008.3 1007.2 7
СЗ 2 2000 м гроза, ливневой дождь 10/5 600 м
[Cb cap Ac As]
+26.4 +25.5 95 +39 +39 очень
душно
1008.8 1007.7 7
штиль 0 4000 м слаб. ливневой дождь, в посл. час гроза 10/5 600 м
[Sc diur, vesp Ac As]
+25.8 +25.8 100 +38 +39 очень
душно
1010.9 1009.8 +25.0 +30.0 16
штиль 0 10 км в посл. час морось {гроза, дождь} 9/4 300 м
[St Ac trans Ci sp]
+25.8 +25.5 98 +38 +46 очень
душно
1010.1 1009.0 3
В 1 10 км 6/3 600 м
[Sc diur, vesp Ac trans Ci fib]
+29.6 +25.7 80 +44 +52 опасность
перегрева
1007.5 1006.5 3
С 2 10 км 8/4 300 м
[St Ac As]
+28.2 +25.7 86 +42 +42 опасность
перегрева
1008.0 1006.9 +30.1 3
штиль 0 2000 м слаб. морось {дождь} 10/4 300 м
[St As trans]
+25.2 +24.9 98 +36 +36 очень
душно
1010.4 1009.3 39
С 1 4000 м {дождь, морось} 9/9 300 м
[]
+25.6 +25.3 98 +37 +37 очень
душно
1010.1 1009.0 41
штиль 0 2000 м слаб. дождь 10/5 300 м
[Frnb As op]
+25.0 +25.0 100 +36 +36 очень
душно
1009.5 1008.4 49
штиль 0 4000 м {дождь} 10/4 300 м
[St As trans]
+25.0 +24.7 98 +35 +35 очень
душно
1009.4 1008.3 51
С 1 4000 м слаб. морось {дождь} 10/4 300 м
[St As trans]
+25.8 +25.5 98 +38 +39 очень
душно
1011.5 1010.4 +24.4 +30.2 52
С 1 4000 м {дождь, морось} 10/4 300 м
[St As trans]
+28.0 +26.3 91 +43 +48 опасность
перегрева
1010.8 1009.7
СВ 1 4000 м {дождь, морось} 10/4 300 м
[St As trans]
+26.8 +25.4 92 +39 +43 очень
душно
1008.2 1007.1 17
В 1 4000 м {дождь, морось} 9/3 300 м
[St Ac As Ci fib]
+27.2 +24.9 87 +39 +39 очень
душно
1008.1 1007.0 +28.3 17
СВ 1 4000 м 6/3 300 м
[St Ac trans Ci fib]
+27.2 +24.9 87 +39 +39 очень
душно
1010.7 1009.6 17
штиль 0 4000 м 6/3 300 м
[St Ac trans Ci fib]
+26.0 +24.6 92 +37 +37 очень
душно
1010.9 1009.8 17
СЗ 1 4000 м 9/4 300 м
[St As trans]
+26.2 +24.8 92 +37 +37 очень
душно
1009.2 1008.1 17
СЗ 1 4000 м {дождь, морось} 6/3 300 м
[St Ac As]
+25.2 +24.9 98 +36 +36 очень
душно
1009.6 1008.5 20
С 1 10 км 6/4 600 м
[Sc diur, vesp Ac trans Ci fib]
+27.4 +25.7 90 +40 +44 очень
душно
1011.2 1010.1 +25.0 +28.3 20
С 1 4000 м слаб. морось 8/4 300 м
[St As trans]
+29.8 +25.0 75 +43 +50 опасность
перегрева
1010.7 1009.7 0.0
СВ 2 10 км 5/3 600 м
[Sc diur, vesp Ci fib]
+30.6 +25.2 73 +44 +53 опасность
перегрева
1008.1 1007.1 0.0
СВ 1 10 км 4/3 600 м
[Sc diur, vesp Ci fib]
+29.0 +25.3 80 +42 +42 опасность
перегрева
1007.4 1006.3 +31.2 0.0
В 1 4000 м 3/1 600 м
[Sc diur, vesp Ci fib]
+28.2 +25.1 83 +41 +41 опасность
перегрева
1010.3 1009.2 0.0
СВ 1 4000 м 3/1 600 м
[Sc diur, vesp Ci fib]
+27.6 +24.7 84 +39 +39 очень
душно
1010.4 1009.3 0.0
штиль 0 4000 м 3/1 600 м
[Sc diur, vesp Ci fib]
+27.4 +25.1 87 +39 +39 очень
душно
1008.9 1007.8 0.0
С 1 4000 м 4/3 600 м
[Sc diur, vesp Ci fib]
+26.4 +25.3 94 +38 +38 очень
душно
1009.6 1008.5 0.0
СЗ 1 10 км 9/4 600 м
[Sc diur, vesp Ac As]
+27.4 +26.0 92 +41 +43 опасность
перегрева
1011.5 1010.4 +26.0 +31.2 0.0
штиль 0 4000 м в посл. час дождь {морось} 9/5 300 м
[Sc diur, vesp Ac As]
+27.8 +26.4 92 +42 +48 опасность
перегрева
1011.8 1010.7 0.5
С 1 4000 м в посл. час дождь {морось} 10/5 600 м
[Sc diur, vesp Ac As]
+27.6 +25.9 90 +41 +43 опасность
перегрева
1008.9 1007.8 3
СВ 1 4000 м {гроза, дождь} 10/5 600 м
[Cb cap Ac As]
+25.8 +25.5 98 +38 +38 очень
душно
1008.6 1007.5 +30.1 13
штиль 0 4000 м 8/6 600 м
[Sc diur, vesp Ci fib]
+26.6 +25.5 94 +39 +39 очень
душно
1010.3 1009.2 13
СЗ 1 4000 м зарница 8/4 600 м
[Cb cap Ac trans Ci fib]
+26.4 +25.8 97 +39 +39 очень
душно
1010.6 1009.5 13
С 1 4000 м в посл. час дождь {морось} 5/4 600 м
[Sc diur, vesp Ci fib]
+25.4 +25.1 98 +36 +36 очень
душно
1008.8 1007.7 17
СЗ 2 4000 м {дождь, морось} 8/5 600 м
[Sc diur, vesp Ac trans Ci fib]
+24.6 +24.3 98 +34 +34 очень
душно
1009.0 1007.9 17
Местоположение метеостанции Нагапаттинам (Тамилнад, Индия): широта 10.77 долгота 79.85 высота над уровнем моря 9 м.
В архиве по умолчанию представлена погода в Нагапаттинаме за последнюю неделю. Архивные данные за месяц целиком и за предыдущие месяцы, начиная с января 2011 года, Вы можете получить, выбрав интересующий диапазон дат из раскрывающегося списка и нажав кнопку "Найти!".
*Определитесь, кто Вы:
Внимание! Время в таблицах - всемирное. Для получения местного времени необходимо прибавить поправку, которая равна 5.5 ч.
Смотрите также архив погоды в соседних городах и на ближайших метеорологических станциях:
Партнеры нашего сайта:      
Пояснения к столбцам:
  • Ветер - указаны скорость ветра в м/с - средняя за 10 мин, порывы в срок и между сроками (в фигурных скобках) и направление, откуда дует ветер: С - северный,
  • СВ - северо-восточный, В - восточный, ЮВ - юго-восточный, Ю - южный, ЮЗ - юго-западный, З - западный, СЗ - северо-западный.
  • Видимость - горизонтальная дальность видимости в метрах или километрах. При видимости от 1 до 10 км при отсутствии осадков обычно наблюдается дымка, при ухудшении видимости до 1 км и менее - туман. В сухую погоду видимость может ухудшаться дымом, пылью или мглою.
  • Явления - указаны атмосферные явления, наблюдавшиеся в срок или в последний час перед сроком; фигурными скобками обозначены явления, наблюдавшиеся между сроками (за 1-3 часа до срока); квадратными скобками обозначены град или гололедные отложения с указанием их диаметра в мм.
  • Облачность - указаны через наклонную черту общая и нижняя облачность в баллах и высота нижней границы облаков в метрах; квадратными скобками обозначены формы облаков: Ci - перистые, Cs - перисто-слоистые, Cc - перисто-кучевые, Ac - высококучевые, As - высокослоистые, Sc - слоисто-кучевые, Ns - слоисто-дождевые, Cu - кучевые, Cb - кучево-дождевые. Подробнее классификацию облаков см. в Атласе облаков (PDF).
  • T - Температура воздуха - температура, измеренная на высоте 2 м над землей.
  • Td - Температура точки росы - температура, при понижении до которой содержащийся в воздухе водяной пар достигнет насыщения.
  • f - Относительная влажность воздуха - влажноcть воздуха, измеренная на высоте 2 м над землей.
  • Te - Эффективная температура - температура, которую ощущает одетый по сезону человек в тени. Характеристика душности погоды. При расчете учитывается влияние влажности воздуха и скорости ветра на теплоощущения человека.
  • Tes - Эффективная температура на солнце - температура, которую ощущает человек, с поправкой на солнечный нагрев. Характеристика знойности погоды. Зависит от высоты солнца над горизонтом, облачности и скорости ветра. Ночью, в пасмурную погоду, а также при ветре 12 м/с и более поправка равна нулю.
  • P - Атмосферное давление - приведенное к уровню моря атмосферное давление.
  • Po - Атмосферное давление - измеренное на уровне метеостанции атмосферное давление.
  • Tmin - Минимальная температура - минимум температуры воздуха на высоте 2 м над землей.
  • Tmax - Максимальная температура - максимум температуры воздуха на высоте 2 м над землей.
  • R - Количество осадков - Количество выпавших осадков за период времени, мм. При наведении курсора мыши на число - период времени, за который выпало указанное количество осадков.
  • R24 - Количество осадков - Количество выпавших осадков за 24 часа, мм.
  • S - Снежный покров - Высота снежного покрова, см. При наведении курсора мыши на число - состояние снежного покрова и степень покрытия местности в баллах.